Regional Weather Roundup
Issued by NWS Grand Forks, ND

Home | Current Version | Previous Version | Graphics & Text | Print | Product List | Glossary On
Versions: 1 2 3 4 5 6 7 8 9 10 11 12 13 14 15 16 17 18 19 20 21 22 23 24 25 26 27 28 29 30 31 32 33 34 35 36 37 38 39 40 41 42 43 44 45 46 47 48 49 50
000
ASUS43 KFGF 251210
RWRFGF
PRAIRIE TO PINES  WEATHER ROUNDUP
NATIONAL WEATHER SERVICE EASTERN NORTH DAKOTA/GRAND FORKS ND
600 AM CST THU DEC 25 2014

 **SATELLITE DATA USED TO AUGMENT SKY COVER AT AUTOMATED STATIONS**
 *****  WEATHER ACROSS EASTERN NORTH DAKOTA  *****

CITY           SKY/WX    TMP DP  RH WIND       PRES   REMARKS
GRAND FORKS    PTCLDY    24  22  91 W6        29.56R WCI  17
6HR MIN TEMP:  24; 6HR MAX TEMP:  30;

GRAND FRKS AFB PTCLDY    23  23  99 NW7       29.57R WCI  15
GRAND FRKS NWS   N/A     27 N/A N/A NW6         N/A  WCI  20
DEVILS LAKE    MOCLDY    18  12  79 W7        29.57R WCI   8
6HR MIN TEMP:  16; 6HR MAX TEMP:  21;

FARGO          CLOUDY    27  23  85 NW10      29.59R WCI  17
WAHPETON ARPT  CLOUDY    30  27  86 W6        29.59R WCI  24
$$

 ***** WEATHER ACROSS CENTRAL AND WESTERN NORTH DAKOTA  *****

CITY           SKY/WX    TMP DP  RH WIND       PRES   REMARKS
BISMARCK       MOCLDY    24  20  84 NW7       29.63R WCI  16
6HR MIN TEMP:  23; 6HR MAX TEMP:  29;

MINOT          CLOUDY    28  23  81 W10       29.61R WCI  19
6HR MIN TEMP:  25; 6HR MAX TEMP:  28;

JAMESTOWN      CLOUDY    23  20  88 NW12      29.59R WCI  12
6HR MIN TEMP:  23; 6HR MAX TEMP:  29;

MINOT AFB      CLOUDY    28  28  99 NW13      29.61R WCI  17
GARRISON         N/A     23  20  88 NW13      29.61R WCI  11
WILLISTON      CLOUDY    28  24  85 NW13      29.67R WCI  17
6HR MIN TEMP:  19; 6HR MAX TEMP:  28;

DICKINSON      CLOUDY    24  20  84 NW9       29.61R WCI  14
6HR MIN TEMP:  24; 6HR MAX TEMP:  28;

HETTINGER      CLOUDY    28  24  85 N13       29.60R WCI  17
6HR MIN TEMP:  28; 6HR MAX TEMP:  33;

$$

 *****  OTHER AIRPORT OBSERVATIONS IN OUR AREA  *****

CITY           SKY/WX    TMP DP  RH WIND       PRES   REMARKS
WALHALLA         N/A     28  28 100 NW10      29.55R WCI  19
GRAFTON AIRPOR NOT AVBL
VALLEY CITY AR FAIR      23  23 100 NW14G20   29.58R WCI  11
CANDO          CLOUDY    16  14  93 W7        29.58R WCI   6
CAVALIER APRT  CLOUDY    28  25  86 W9        29.55R WCI  20
GWINNER        SUNNY     30  30 100 CALM      29.59R
SHEYENNE NWR     N/A     26  24  91 W5        29.95  WCI  20
ROLLA          CLOUDY    23  23 100 NW16G23   29.56R WCI  10
 ***** THE ABOVE OBSERVATIONS ARE NON NWS ARE NOT QUALITY
       CONTROLLED AND MAY MIS-REPORT RAIN FOR SNOW...
$$

  *****  WEATHER ACROSS NORTHERN MINNESOTA  *****

CITY           SKY/WX    TMP DP  RH WIND       PRES   REMARKS
FLAG ISLAND    CLOUDY    28  27  93 SW6       29.46R WCI  22
WARROAD        CLOUDY    28  25  86 W6        29.49R WCI  22
ROSEAU         CLOUDY    30  25  80 W6        29.49R WCI  24
HALLOCK        CLOUDY    30  27  86 W8        29.53R WCI  23
THF RVR FALLS  CLOUDY    28  25  86 NW8       29.54R WCI  20
6HR MIN TEMP:  27; 6HR MAX TEMP:  28;

BAUDETTE       CLOUDY    29  27  92 SW6       29.47R WCI  23
6HR MIN TEMP:  29; 6HR MAX TEMP:  29;

WASKISH        CLOUDY    30  28  93 SW5       29.50R
CROOKSTON      CLOUDY    28  27  93 W6        29.57R WCI  22
STEPHEN NDAWN    N/A     28  12  50 W7          N/A  WCI  21
GREENBUSH NDAW   N/A     28  27  93 W9          N/A  WCI  20
$$
  *****  WEATHER ACROSS CENTRAL AND WEST MINNESOTA  *****

CITY           SKY/WX    TMP DP  RH WIND       PRES   REMARKS
FOSSTON        CLOUDY    25  25 100 W10       29.55R FOG     WCI  15
BEMIDJI        CLOUDY    29  28  93 W10       29.51R FOG     WCI  20
PARK RAPIDS    CLOUDY    30  28  92 SW10      29.53R WCI  21
6HR MIN TEMP:  29; 6HR MAX TEMP:  30;

ELBOW LAKE     CLOUDY    28  27  96 SW5       29.58R WCI  23
6HR MIN TEMP:  28; 6HR MAX TEMP:  28;

WADENA         CLOUDY    28  27  93 SW6       29.55R WCI  22
DETROIT LAKES  CLOUDY    30  30 100 W7        29.56R WCI  23
MOORHEAD       CLOUDY    28  28 100 NW9       29.59R WCI  20
FERGUS FALLS   CLOUDY    28  28 100 SW6       29.60R WCI  22
MORRIS MN      CLOUDY    30  28  93 S3        29.58R
STAPLES        CLOUDY    28  27  93 SW6       29.57R WCI  22
$$
  *****  WEATHER ELSEWHERE ACROSS MINNESOTA  *****

CITY           SKY/WX    TMP DP  RH WIND       PRES   REMARKS
DULUTH         CLOUDY    31  27  85 SW12      29.53R WCI  22
6HR MIN TEMP:  31; 6HR MAX TEMP:  32; 6HR PCP: TRACE;

INTRNTL FALLS  CLOUDY    30  27  88 W7        29.48R WCI  23
6HR MIN TEMP:  28; 6HR MAX TEMP:  30;

ELY            CLOUDY    30  27  86 SW6       29.48R WCI  24
CLOQUET        LGT SNOW  30  28  93 SW7       29.54R WCI  23
WHEATON        CLOUDY    28  27  93 CALM      29.61R
BRAINERD       CLOUDY    29  26  89 SW9       29.58R WCI  20
6HR MIN TEMP:  29; 6HR MAX TEMP:  30;

HIBBING        CLOUDY    31  26  82 SW7       29.51R WCI  24
6HR MIN TEMP:  31; 6HR MAX TEMP:  32;

ALEXANDRIA     CLOUDY    28  26  92 SW7       29.58R WCI  21
6HR MIN TEMP:  28; 6HR MAX TEMP:  28; 6HR PCP: TRACE;

SAINT CLOUD    CLOUDY    32  26  78 SW9       29.60R WCI  24
6HR MIN TEMP:  32; 6HR MAX TEMP:  33;

MINNEAPOLIS    CLOUDY    30  25  81 S9        29.65R WCI  22
6HR MIN TEMP:  30; 6HR MAX TEMP:  32;

$$

  *****  WEATHER ACROSS SOUTH DAKOTA  *****

CITY           SKY/WX    TMP DP  RH WIND       PRES   REMARKS
SIOUX FALLS    CLOUDY    28  25  88 SE5       29.56R WCI  23
6HR MIN TEMP:  25; 6HR MAX TEMP:  28;

BROOKINGS      NOT AVBL
WATERTOWN      CLOUDY    28  25  88 CALM      29.56R
6HR MIN TEMP:  26; 6HR MAX TEMP:  28; 6HR PCP: TRACE;

HURON          CLOUDY    27  24  89 N5        29.58R WCI  22
6HR MIN TEMP:  24; 6HR MAX TEMP:  27;

SISSETON         N/A     31  28  89 NW6       29.57R
ABERDEEN       CLOUDY    30  26  85 CALM      29.60R
6HR MIN TEMP:  28; 6HR MAX TEMP:  30;

MITCHELL       CLOUDY    28  26  92 CALM      29.56R
PIERRE         LGT RAIN  33  31  92 N13       29.53S WCI  24
6HR MIN TEMP:  25; 6HR MAX TEMP:  33; 6HR PCP:  0.01;

MOBRIDGE       CLOUDY    33  27  78 N13       29.56R WCI  24
RAPID CITY     LGT SNOW  31  29  92 N10       29.54R FOG     WCI  22
6HR MIN TEMP:  31; 6HR MAX TEMP:  34; 6HR PCP:  0.04;

$$

  *****  SOME WEATHER IN NEARBY STATES *****

CITY           SKY/WX    TMP DP  RH WIND       PRES   REMARKS
GLASGOW MT     CLOUDY    25  19  78 N15       29.75R WCI  13
6HR MIN TEMP:  25; 6HR MAX TEMP:  28;

GREAT FALLS MT MIX PCPN  23  19  85 N5        29.80R WCI  17
6HR MIN TEMP:  22; 6HR MAX TEMP:  28; 6HR PCP:  0.01;

CHEYENNE WY    MOCLDY    26  18  71 CALM      29.39S
6HR MIN TEMP:  24; 6HR MAX TEMP:  39;

SCOTTSBLUFF NE CLOUDY    36  27  69 NE14      29.40F
6HR MIN TEMP:  34; 6HR MAX TEMP:  39; 6HR PCP: TRACE;

OMAHA NE       CLOUDY    32  28  85 S12       29.65S WCI  23
6HR MIN TEMP:  29; 6HR MAX TEMP:  32;

DES MOINES IA  MOCLDY    32  28  85 S10       29.73S WCI  24
6HR MIN TEMP:  31; 6HR MAX TEMP:  32;

DAVENPORT IA   CLOUDY    33  26  75 SW10      29.83R WCI  25
6HR MIN TEMP:  32; 6HR MAX TEMP:  34; 6HR PCP: TRACE;

CHICAGO IL     CLOUDY    34  27  75 W13G22    29.83R WCI  25
6HR MIN TEMP:  34; 6HR MAX TEMP:  36;

EAU CLAIRE WI  CLOUDY    31  26  82 SW9       29.66R WCI  23
6HR MIN TEMP:  31; 6HR MAX TEMP:  33;

LA CROSSE WI   CLOUDY    32  26  78 SW9       29.73R WCI  24
6HR MIN TEMP:  32; 6HR MAX TEMP:  35;

$$

  *****  SOME NATIONAL WEATHER *****

CITY           SKY/WX    TMP DP  RH WIND       PRES   REMARKS
LA GUARDIA NY  LGT RAIN  51  42  71 W16G30    29.63R
6HR MIN TEMP:  51; 6HR MAX TEMP:  63; 6HR PCP:  0.07;

RALEIGH NC     CLOUDY    53  41  63 NW3       29.86R
6HR MIN TEMP:  53; 6HR MAX TEMP:  64; 6HR PCP:  0.03;

ATLANTA GA     PTCLDY    39  34  82 W7        30.09R
6HR MIN TEMP:  39; 6HR MAX TEMP:  46;

NEW ORLEANS LA CLEAR     39  35  86 SW6       30.24R
6HR MIN TEMP:  38; 6HR MAX TEMP:  44;

OKLAHOMA CITY  PTCLDY    34  25  69 SE13      29.81S WCI  25
6HR MIN TEMP:  29; 6HR MAX TEMP:  34;

ALBUQUERQUE NM MOCLDY    32  11  41 SE12      29.74F WCI  23
6HR MIN TEMP:  31; 6HR MAX TEMP:  33;

SALT LAKE CITY FLURRIES  33  24  69 W20       29.55R WCI  21
6HR MIN TEMP:  33; 6HR MAX TEMP:  47; 6HR PCP:  0.15;




USA.gov is the U.S. government's official web portal to all federal, state and local government web resources and services.